Asheville, NC

6:07 AM EST on January 18, 2018 (GMT -0500)
Asheville Regional

Weather History for KAVL - November, 2013

Change the Weather History Date:

Monday, November 25, 2013

  Actual Average Record
Temperature  
Mean Temperature 30 °F 44 °F  
Max Temperature 39 °F 55 °F 74 °F (1990)
Min Temperature 20 °F 33 °F 1 °F (1950)
Degree Days  
Heating Degree Days 35 21  
Month to date heating degree days 485 424  
Since 1 July heating degree days 736 759  
Cooling Degree Days 0 0  
Month to date cooling degree days 0 0  
Year to date cooling degree days 860 862  
Moisture  
Dew Point 10 °F    
Average Humidity 49    
Maximum Humidity 73    
Minimum Humidity 24    
Precipitation  
Precipitation T in 0.14 in 1.87 in (1979)
Month to date precipitation 0.86 2.97  
Year to date precipitation 64.86 41.30  
Snow  
Snow T in 0.00 in 0.40 in (1930)
Month to date snowfall T 0.1  
Since 1 July snowfall T 0.1  
Since 1 September snowfall T 0.1  
Snow Depth 0.00 in    
Sea Level Pressure  
Sea Level Pressure 30.43 in    
Wind  
Wind Speed 6 mph (SSE)    
Max Wind Speed 12 mph    
Max Gust Speed 16 mph    
Visibility 10 miles    
Events      
T = Trace of Precipitation, MM = Missing Value Source: NWS Daily Summary

Daily Weather History Graph

Daily Weather History Graph

Search for Another Location

Airport or City:

Trip Planner

Search our weather history database for the weather conditions in past years. The results will help you decide how hot, cold, wet, or windy it might be!

Date:

Astronomy

Nov. 25, 2013 Rise Set
Actual Time 7:15 AM EST 5:18 PM EST
Civil Twilight 6:47 AM EST 5:46 PM EST
Nautical Twilight 6:16 AM EST 6:17 PM EST
Astronomical Twilight 5:46 AM EST 6:48 PM EST
Moon No Moon Rise 12:40 PM EST (11/25)
Length of Visible Light 10h 58m
Length of Day
10h 03m
Waning Gibbous, 51% of the Moon is Illuminated
Nov 25
Waning Gibbous
Nov 25
Last Quarter
Dec 2
New
Dec 9
First Quarter
Dec 17
Full

Hourly Weather History & Observations

Time (EST) Temp. Windchill Dew Point Humidity Pressure Visibility Wind Dir Wind Speed Gust Speed Precip Events Conditions
12:54 AM 21.9 °F 17.2 °F 10.0 °F 60% 30.49 in 10.0 mi SE 3.5 mph - N/A   Clear
1:54 AM 21.0 °F 14.6 °F 10.0 °F 63% 30.49 in 10.0 mi SE 4.6 mph - N/A   Clear
2:54 AM 19.9 °F - 12.0 °F 71% 30.49 in 10.0 mi Calm Calm - N/A   Clear
3:54 AM 21.0 °F 14.6 °F 10.9 °F 65% 30.49 in 10.0 mi SE 4.6 mph - N/A   Clear
4:54 AM 21.0 °F 16.2 °F 10.9 °F 65% 30.49 in 10.0 mi SSE 3.5 mph - N/A   Clear
5:54 AM 21.0 °F 14.6 °F 10.0 °F 63% 30.49 in 10.0 mi South 4.6 mph - N/A   Clear
6:54 AM 21.9 °F 17.2 °F 10.9 °F 63% 30.49 in 10.0 mi SSE 3.5 mph - N/A   Clear
7:54 AM 23.0 °F 15.8 °F 10.0 °F 58% 30.51 in 10.0 mi South 5.8 mph - N/A   Clear
8:54 AM 26.1 °F 16.8 °F 6.1 °F 43% 30.51 in 10.0 mi SSE 9.2 mph - N/A   Clear
9:54 AM 28.0 °F 20.8 °F 3.9 °F 36% 30.51 in 10.0 mi SSE 6.9 mph - N/A   Clear
10:54 AM 32.0 °F 26.4 °F 6.1 °F 34% 30.49 in 10.0 mi Variable 5.8 mph - N/A   Clear
11:54 AM 33.1 °F 26.1 °F 6.1 °F 32% 30.45 in 10.0 mi SSE 8.1 mph - N/A   Clear
12:54 PM 36.0 °F 29.6 °F 7.0 °F 30% 30.40 in 10.0 mi SE 8.1 mph - N/A   Clear
1:54 PM 37.0 °F 31.6 °F 5.0 °F 26% 30.38 in 10.0 mi ESE 6.9 mph - N/A   Clear
2:54 PM 37.9 °F 32.7 °F 3.9 °F 24% 30.36 in 10.0 mi SE 6.9 mph - N/A   Mostly Cloudy
3:54 PM 36.0 °F 31.1 °F 6.1 °F 29% 30.38 in 10.0 mi ESE 5.8 mph - N/A   Overcast
4:54 PM 36.0 °F 33.3 °F 8.1 °F 31% 30.37 in 10.0 mi Variable 3.5 mph - N/A   Overcast
5:22 PM 35.6 °F 30.7 °F 10.4 °F 35% 30.32 in 10.0 mi South 5.8 mph - N/A   Overcast
5:54 PM 35.1 °F 29.3 °F 10.9 °F 37% 30.37 in 10.0 mi SSE 6.9 mph - N/A   Overcast
6:54 PM 34.0 °F 26.6 °F 10.0 °F 37% 30.39 in 10.0 mi SSE 9.2 mph - N/A   Overcast
7:54 PM 33.1 °F 27.7 °F 9.0 °F 37% 30.40 in 10.0 mi SSE 5.8 mph - N/A   Overcast
8:54 PM 33.1 °F 27.7 °F 9.0 °F 37% 30.37 in 10.0 mi SSE 5.8 mph - N/A   Overcast
9:54 PM 33.1 °F 26.9 °F 14.0 °F 46% 30.36 in 10.0 mi Variable 6.9 mph - 0.00 in   Overcast
10:54 PM 30.9 °F 22.8 °F 21.9 °F 69% 30.29 in 10.0 mi SE 9.2 mph - 0.00 in   Overcast
11:54 PM 30.9 °F 26.2 °F 21.9 °F 69% 30.31 in 10.0 mi South 4.6 mph - 0.00 in   Overcast